www.pogodaiklimat.ru

Погода и климат >> Архив погоды >> Испания >> Инохоса-дель-Дуке


ПОГОДА в Инохоса-дель-Дуке

  • Прогноз погоды в Инохоса-дель-Дуке
  • Монитор погоды в Инохоса-дель-Дуке

АРХИВ ПОГОДЫ в Инохоса-дель-Дуке

Время (UTC), дата Ветер
(напр.,м/с)
 
Видим.   Явления Облачность Т
(С)
Тd
(С)
f
(%)
Тe
(С)
Тes
(С)
Комфортность P
(гПа)
Po
(гПа)
Тmin
(С)
Tmax
(С)
R
(мм)
R24
(мм)
S
(см)
04 10.07 штиль 0
{1}
н/о н/о +16.9 +6.4 50 +17 +17 1014.0 950.9
05 10.07 СВ 1-1
{1}
н/о н/о +18.7 +8.1 50 +21 +21 комфорт 1013.7 951.0
06 10.07 С 1 н/о н/о +19.6 +8.5 49 +22 +22 комфорт 1013.6 951.1 +16.2 +28.2
07 10.07 В 1-2
{2}
н/о н/о +23.0 +11.4 48 +25 +25 комфорт 1013.1 951.4
08 10.07 В 2-3
{3}
н/о н/о +24.5 +11.8 45 +26 +26 жарко 1012.8 951.4
10 10.07 В 1-3
{3}
н/о н/о +29.7 +13.5 37 +31 +31 жарко 1011.7 951.4
11 10.07 ЮВ 1-3
{3}
н/о н/о +30.6 +12.5 33 +31 +31 жарко 1011.4 951.3
12 10.07 Ю 1-3
{4}
н/о н/о +32.9 +14.0 32 +34 +34 очень
жарко
1010.3 950.7
13 10.07 ЮЗ 2-3
{3}
н/о н/о +33.5 +13.6 30 +34 +34 очень
жарко
1009.7 950.2
14 10.07 ЮВ 1-3
{3}
н/о н/о +33.7 +13.2 29 +34 +34 очень
жарко
1009.1 949.7
16 10.07 штиль 0-3
{3}
н/о н/о +34.3 +12.6 27 +35 +35 очень
жарко
1008.1 948.9
17 10.07 В 1-1
{3}
н/о н/о +34.3 +12.6 27 +35 +35 очень
жарко
1008.0 948.8
18 10.07 В 1-2
{2}
н/о н/о +33.7 +12.1 27 +34 +34 очень
жарко
1008.1 948.7 +35.1
19 10.07 СВ 1-1
{2}
н/о н/о +33.1 +11.6 27 +33 +33 жарко 1008.4 948.9
20 10.07 З 1-2
{2}
н/о н/о +29.2 +8.8 28 +29 +29 жарко 1009.8 949.4
22 10.07 ЮЗ 1-2
{2}
н/о н/о +25.1 +7.3 32 +25 +25 комфорт 1011.7 950.4
23 10.07 З 1-1
{2}
н/о н/о +24.4 +6.7 32 +24 +24 комфорт 1012.0 950.5
00 11.07 З 1-1
{1}
н/о н/о +23.6 +6.4 33 +24 +24 комфорт 1012.0 950.4
01 11.07 ЮЗ 1-2
{2}
н/о н/о +21.7 +5.6 35 +22 +22 комфорт 1012.2 950.2
02 11.07 ЮЗ 2-2
{2}
н/о н/о +22.9 +8.9 41 +24 +24 комфорт 1011.8 950.1
04 11.07 В 1-2
{2}
н/о н/о +18.9 +8.3 50 +21 +21 комфорт 1012.9 950.3
05 11.07 В 1-1
{1}
н/о н/о +17.8 +8.4 54 +19 +19 1013.1 950.3
06 11.07 В 2 н/о н/о +19.0 +9.4 54 +20 +20 1013.3 950.7 +17.5 +33.6
07 11.07 В 1-2
{2}
н/о н/о +22.9 +11.6 49 +25 +25 комфорт 1012.7 951.0
08 11.07 ЮВ 1-1
{2}
н/о н/о +27.1 +13.5 43 +29 +29 жарко 1012.2 951.4
10 11.07 В 1-2
{2}
н/о н/о +31.5 +14.1 35 +33 +33 жарко 1011.7 951.7
11 11.07 В 1-2
{3}
н/о н/о +32.8 +14.4 33 +34 +34 очень
жарко
1011.1 951.4
12 11.07 В 1-3
{3}
н/о н/о +34.6 +15.0 31 +36 +36 душно 1010.1 950.9
13 11.07 ЮВ 1-3
{4}
н/о н/о +36.3 +15.4 29 +38 +38 очень
душно
1009.3 950.5
14 11.07 В 2-3
{3}
н/о н/о +36.4 +14.4 27 +37 +37 очень
жарко
1008.9 950.1
16 11.07 ЮВ 1-2
{3}
н/о н/о +38.2 +15.3 26 +40 +40 очень
душно
1007.5 949.1
17 11.07 СЗ 1-2
{3}
н/о н/о +38.8 +15.9 26 +40 +40 очень
душно
1006.9 948.7
18 11.07 Ю 1-2
{2}
н/о н/о +38.4 +14.9 25 +39 +39 очень
душно
1007.1 948.8 +39.0
19 11.07 ЮЗ 2-3
{3}
н/о н/о +35.6 +13.2 26 +36 +36 очень
жарко
1008.0 949.1
20 11.07 ЮЗ 2-2
{4}
н/о н/о +32.6 +11.7 28 +33 +33 жарко 1009.4 949.7
22 11.07 З 1-2
{3}
н/о н/о +29.4 +11.0 32 +30 +30 жарко 1011.2 950.8
23 11.07 Ю 2-2
{2}
н/о н/о +26.2 +9.0 34 +27 +27 жарко 1012.3 951.2
00 12.07 Ю 1-2
{3}
н/о н/о +26.5 +10.2 36 +27 +27 жарко 1012.4 951.4
01 12.07 ЮЗ 1-2
{2}
н/о н/о +24.6 +10.0 40 +26 +26 жарко 1013.0 951.6
02 12.07 ЮЗ 2-3
{3}
н/о н/о +24.9 +11.1 42 +26 +26 жарко 1013.2 951.8
04 12.07 З 1-1
{2}
н/о н/о +22.7 +11.4 49 +25 +25 комфорт 1014.2 952.3
05 12.07 З 1-1
{2}
н/о н/о +22.0 +11.4 51 +24 +24 комфорт 1014.3 952.3
06 12.07 ЮВ 1 н/о н/о +21.1 +10.9 52 +23 +23 комфорт 1014.9 952.7 +20.9 +38.0
07 12.07 ЮВ 1-1
{1}
н/о н/о +23.2 +12.8 52 +26 +26 жарко 1014.9 953.1
08 12.07 ЮВ 1-1
{2}
н/о н/о +28.0 +15.0 45 +31 +31 душно 1014.4 953.6
10 12.07 В 1-2
{2}
н/о н/о +30.1 +15.0 40 +32 +32 жарко 1013.6 953.3
11 12.07 В 1-2
{2}
н/о н/о +30.3 +14.4 38 +32 +32 жарко 1013.3 953.0
12 12.07 В 2-3
{3}
н/о н/о +32.0 +15.5 37 +34 +34 душно 1011.9 952.1
13 12.07 В 1-2
{3}
н/о н/о +34.1 +16.0 34 +37 +37 очень
душно
1011.3 951.9
14 12.07 В 1-2
{2}
н/о н/о +33.1 +14.7 33 +35 +35 душно 1010.4 950.8
16 12.07 ЮЗ 1-2
{2}
н/о н/о +36.2 +16.9 32 +39 +39 очень
душно
1010.0 951.2
17 12.07 СЗ 2-3
{3}
н/о н/о +35.8 +16.0 31 +38 +38 очень
душно
1009.9 951.0
18 12.07 СЗ 1-1
{2}
н/о н/о +34.6 +15.0 31 +36 +36 душно 1010.4 951.2 +36.2
19 12.07 СЗ 1-2
{3}
н/о н/о +32.7 +14.3 33 +34 +34 очень
жарко
1010.9 951.2
20 12.07 -2
{3}
н/о н/о +31.2 +13.5 34 1010.4 950.4
22 12.07 З 3-4
{6}
н/о н/о +27.9 +14.5 44 +30 +30 жарко 1012.6 951.9
23 12.07 ЮЗ 3-5
{5}
н/о н/о +26.2 +14.6 49 +29 +29 жарко 1014.1 953.0
00 13.07 З 2-3
{4}
н/о н/о +25.3 +14.7 52 +28 +28 жарко 1013.7 952.5
01 13.07 ЮЗ 2-4
{4}
н/о н/о +23.7 +14.4 56 +26 +26 жарко 1013.9 952.3
02 13.07 ЮЗ 1-2
{3}
н/о н/о +23.2 +14.7 59 +27 +27 душно 1014.6 952.9
04 13.07 ЮВ 1-1
{2}
н/о н/о +21.4 +15.4 69 +25 +25 комфорт 1013.9 951.9
05 13.07 Ю 1-2
{2}
н/о н/о +21.1 +15.4 70 +24 +24 комфорт 1014.2 952.1
06 13.07 ЮЗ 2 н/о н/о +21.3 +15.6 70 +25 +25 комфорт 1014.5 952.4 +21.0 +34.2
07 13.07 ЮЗ 2-3
{3}
н/о н/о +22.0 +15.1 65 +26 +26 душно 1014.5 952.6
08 13.07 ЮЗ 1-2
{2}
н/о н/о +23.3 +14.8 59 +27 +27 душно 1014.7 953.0
10 13.07 ЮЗ 2-3
{4}
н/о н/о +26.3 +14.4 48 +29 +29 жарко 1013.9 952.8
11 13.07 ЮЗ 2-4
{4}
н/о н/о +27.9 +14.5 44 +30 +30 жарко 1013.3 952.6
12 13.07 ЮЗ 2-4
{6}
н/о н/о +28.4 +14.6 43 +31 +31 душно 1013.0 952.4
13 13.07 ЮЗ 2-4
{5}
н/о н/о +29.7 +15.4 42 +32 +32 душно 1012.0 951.7
14 13.07 ЮЗ 3-4
{5}
н/о н/о +30.7 +14.3 37 +33 +33 душно 1011.3 951.2
16 13.07 З 3-4
{5}
н/о н/о +31.0 +13.8 35 +32 +32 жарко 1010.0 950.0
17 13.07 З 3-4
{5}
н/о н/о +30.5 +13.3 35 +32 +32 жарко 1009.8 949.7
18 13.07 З 3-4
{4}
н/о н/о +30.0 +13.3 36 +31 +31 жарко 1009.7 949.6 +31.5
19 13.07 З 3-4
{5}
н/о н/о +28.5 +12.4 37 +30 +30 жарко 1010.5 950.0
20 13.07 СЗ 4-5
{5}
н/о н/о +25.1 +11.7 43 +27 +27 жарко 1012.1 950.8
22 13.07 З 2-3
{4}
н/о н/о +22.7 +11.4 49 +25 +25 комфорт 1013.5 951.7
23 13.07 ЮЗ 1-2
{2}
н/о н/о +21.2 +10.6 51 +23 +23 комфорт 1014.0 951.8
00 14.07 З 2-3
{3}
н/о н/о +21.0 +11.6 55 +24 +24 комфорт 1013.7 951.5
01 14.07 З 2-3
{3}
н/о н/о +20.6 +12.8 61 +23 +23 комфорт 1013.4 951.2
02 14.07 З 2-3
{3}
н/о н/о +19.9 +13.2 65 +22 +22 комфорт 1013.4 951.1
04 14.07 З 2-3
{3}
н/о н/о +18.6 +13.9 74 +20 +20 1013.5 950.9
05 14.07 З 1-2
{3}
н/о н/о +18.0 +13.9 77 +19 +19 1013.9 951.2
06 14.07 З 1 н/о н/о +18.6 +14.5 77 +20 +20 1014.0 951.4 +17.6 +29.8
07 14.07 З 2-3
{3}
н/о н/о +20.3 +14.6 70 +23 +23 комфорт 1013.9 951.7
08 14.07 З 2-3
{3}
н/о н/о +22.1 +14.5 62 +25 +25 комфорт 1013.8 951.9
10 14.07 З 2-3
{3}
н/о н/о +26.1 +14.5 49 +29 +29 жарко 1013.1 952.0
11 14.07 СЗ 2-3
{3}
н/о н/о +28.0 +14.6 44 +30 +30 жарко 1012.3 951.7
12 14.07 СЗ 2-3
{4}
н/о н/о +29.2 +14.2 40 +31 +31 жарко 1011.9 951.5
13 14.07 З 2-3
{4}
н/о н/о +30.7 +14.7 38 +33 +33 душно 1011.1 951.0
14 14.07 СЗ 2-4
{4}
н/о н/о +31.1 +14.2 36 +33 +33 душно 1010.6 950.6
16 14.07 СЗ 2-4
{5}
н/о н/о +32.2 +14.3 34 +34 +34 душно 1009.6 949.9
17 14.07 СЗ 3-7
{7}
н/о н/о +32.0 +14.6 35 +34 +34 душно 1009.5 949.8
05 15.07 З 1-1
{2}
н/о н/о +20.2 +14.3 69 +24 +24 комфорт 1012.5 950.3
06 15.07 З 1-2
{2}
н/о н/о +20.9 +14.3 66 +25 +25 комфорт 1012.7 950.6
07 15.07 З 2-2
{2}
н/о н/о +23.3 +15.3 61 +28 +28 душно 1012.3 950.8
08 15.07 З 1-2
{2}
н/о н/о +25.5 +15.5 54 +29 +29 душно 1012.3 951.2
10 15.07 З 1-3
{3}
н/о н/о +30.3 +16.0 42 +33 +33 душно 1011.2 951.1
11 15.07 СЗ 2-3
{3}
н/о н/о +32.0 +15.5 37 +34 +34 душно 1010.7 950.9
12 15.07 З 1-3
{4}
н/о н/о +33.6 +16.0 35 +36 +36 очень
душно
1009.8 950.4
13 15.07 З 1-3
{4}
н/о н/о +35.1 +16.4 33 +38 +38 очень
душно
1009.0 950.0
14 15.07 З 1-3
{4}
н/о н/о +35.8 +16.0 31 +38 +38 очень
душно
1008.5 949.7
16 15.07 СЗ 2-4
{4}
н/о н/о +35.6 +15.3 30 +37 +37 душно 1007.9 949.0
17 15.07 СЗ 2-3
{4}
н/о н/о +35.5 +15.3 30 +37 +37 душно 1007.5 948.6
18 15.07 СЗ 3-3
{5}
н/о н/о +34.2 +15.2 32 +36 +36 душно 1007.7 948.6 +36.4
19 15.07 С 3-4
{4}
н/о н/о +32.7 +13.9 32 +34 +34 очень
жарко
1008.5 948.9
20 15.07 СЗ 2-2
{3}
н/о н/о +29.7 +12.1 34 +31 +31 жарко 1009.6 949.4
22 15.07 Ю 1-1
{1}
н/о н/о +25.2 +10.6 40 +26 +26 жарко 1011.5 950.3
23 15.07 З 1-1
{2}
н/о н/о +25.1 +10.9 41 +26 +26 жарко 1011.7 950.5
00 16.07 З 1-1
{2}
н/о н/о +23.8 +10.4 43 +25 +25 комфорт 1011.9 950.4
01 16.07 ЮЗ 1-2
{2}
н/о н/о +23.2 +10.6 45 +25 +25 комфорт 1011.9 950.3
02 16.07 З 1-1
{2}
н/о н/о +23.0 +11.4 48 +25 +25 комфорт 1011.7 950.1
04 16.07 ЮЗ 1-1
{1}
н/о н/о +20.7 +10.8 53 +24 +24 комфорт 1011.8 949.7
05 16.07 З 1-1
{1}
н/о н/о +20.4 +11.3 56 +23 +23 комфорт 1012.1 949.9
06 16.07 Ю 1 н/о н/о +21.1 +12.0 56 +23 +23 комфорт 1012.2 950.2 +20.1 +34.1
07 16.07 З 1-1
{2}
н/о н/о +25.0 +14.4 52 +28 +28 жарко 1011.9 950.7
08 16.07 СЗ 1-2
{2}
н/о н/о +27.4 +15.7 49 +30 +30 жарко 1011.2 950.5
10 16.07 ЮВ 1-2
{2}
н/о н/о +30.5 +16.1 42 +34 +34 очень
душно
1010.4 950.4
11 16.07 СВ 1-2
{3}
н/о н/о +33.3 +17.1 38 +37 +37 очень
душно
1009.4 950.0
12 16.07 ЮВ 2-4
{5}
н/о н/о +33.8 +16.2 35 +36 +36 очень
душно
1008.9 949.7
13 16.07 ЮЗ 2-3
{4}
н/о н/о +34.8 +16.1 33 +37 +37 очень
душно
1008.4 949.4
14 16.07 Ю 2-4
{6}
н/о н/о +35.5 +14.2 28 +36 +36 очень
жарко
1008.3 949.4
16 16.07 Ю 3-5
{6}
н/о н/о +34.3 +13.8 29 +35 +35 очень
жарко
1007.9 948.8
17 16.07 Ю 3-5
{5}
н/о н/о +34.0 +13.5 29 +35 +35 очень
жарко
1008.0 948.8
18 16.07 Ю 3-5
{5}
н/о н/о +32.7 +11.2 27 +33 +33 жарко 1008.6 949.0 +35.5
19 16.07 ЮЗ 3-4
{5}
н/о н/о +30.9 +9.7 27 +30 +30 жарко 1009.2 949.2
20 16.07 ЮЗ 2-3
{4}
н/о н/о +27.9 +7.1 27 +27 +27 жарко 1010.2 949.5
22 16.07 ЮЗ 1-2
{4}
н/о н/о +24.7 +6.4 31 +25 +25 комфорт 1012.0 950.6
23 16.07 ЮЗ 1-2
{2}
н/о н/о +22.5 +5.8 34 +23 +23 комфорт 1012.6 950.7
00 17.07 ЮЗ 1-2
{2}
н/о н/о +22.3 +6.8 37 +23 +23 комфорт 1012.9 951.0
01 17.07 ЮЗ 1-2
{2}
н/о н/о +20.6 +6.5 40 +23 +23 комфорт 1013.0 950.7
02 17.07 ЮЗ 1-2
{2}
н/о н/о +19.8 +6.8 43 +22 +22 комфорт 1013.2 950.7

 

Местоположение метеостанции Инохоса-дель-Дуке (Испания): широта 38.50 долгота -5.13 высота над уровнем моря 541 м.

В архиве по умолчанию представлена погода в Инохоса-дель-Дуке за последнюю неделю. Архивные данные за месяц целиком и за предыдущие месяцы, начиная с января 2011 года, Вы можете получить, выбрав интересующий диапазон дат из раскрывающегося списка и нажав кнопку "Ввод!".


*Определитесь, кто Вы:
робот инопланетянин человек

Внимание! Время в таблицах - всемирное. Для получения местного времени необходимо прибавить поправку, которая равна 1 ч.

Смотрите также архив погоды в соседних городах и на ближайших метеорологических станциях:

Погода в Вильянуэва-де-Кордобе (Испания) (49 км)
Погода в Эррера-дель-Дуке (Испания) (75 км)
Погода в Кордове (Испания) (76 км)
Погода в Пуэбла-де-дон-Родриго (Испания) (79 км)
Погода в Дон Бенито (Испания) (83 км)
Погода в Льерене (Испания) (83 км)
Погода в Касалья-де-ла-Сьерра (Испания) (85 км)
Погода в Андухаре (Испания) (108 км)
Погода в Эсихе (Испания) (109 км)
Погода в Сьюдад-Реале (Испания) (118 км)

Пояснения к столбцам:

Ветер - указаны скорость ветра в м/с - средняя за 10 мин, порывы в срок и между сроками (в фигурных скобках) и направление, откуда дует ветер: С - северный, СВ - северо-восточный, В - восточный, ЮВ - юго-восточный, Ю - южный, ЮЗ - юго-западный, З - западный, СЗ - северо-западный.
Видимость - горизонтальная дальность видимости в метрах или километрах. При видимости от 1 до 10 км при отсутствии осадков обычно наблюдается дымка, при ухудшении видимости до 1 км и менее - туман. В сухую погоду видимость может ухудшаться дымом, пылью или мглою.
Явления - указаны атмосферные явления, наблюдавшиеся в срок или в последний час перед сроком; фигурными скобками обозначены явления, наблюдавшиеся между сроками (за 1-3 часа до срока); квадратными скобками обозначены град или гололедные отложения с указанием их диаметра в мм.
Облачность - указаны через наклонную черту общая и нижняя облачность в баллах и высота нижней границы облаков в метрах; квадратными скобками обозначены формы облаков: Ci - перистые, Cs - перисто-слоистые, Cc - перисто-кучевые, Ac - высококучевые, As - высокослоистые, Sc - слоисто-кучевые, Ns - слоисто-дождевые, Cu - кучевые, Cb - кучево-дождевые. Подробнее классификацию облаков см. в Атласе облаков (PDF).
T - Температура воздуха - температура, измеренная на высоте 2 м над землей.
Td - Температура точки росы - температура, при понижении до которой содержащийся в воздухе водяной пар достигнет насыщения.
f - Относительная влажность воздуха - влажноcть воздуха, измеренная на высоте 2 м над землей.
Te - Эффективная температура - температура, которую ощущает одетый по сезону человек в тени. Характеристика душности погоды. При расчете учитывается влияние влажности воздуха и скорости ветра на теплоощущения человека.
Tes - Эффективная температура на солнце - температура, которую ощущает человек, с поправкой на солнечный нагрев. Характеристика знойности погоды. Зависит от высоты солнца над горизонтом, облачности и скорости ветра. Ночью, в пасмурную погоду, а также при ветре 12 м/с и более поправка равна нулю.
P - Атмосферное давление - приведенное к уровню моря атмосферное давление.
Po - Атмосферное давление - измеренное на уровне метеостанции атмосферное давление.
Tmin - Минимальная температура - минимум температуры воздуха на высоте 2 м над землей.
Tmax - Максимальная температура - максимум температуры воздуха на высоте 2 м над землей.
R - Количество осадков - Количество выпавших осадков за период времени, мм. При наведении курсора мыши на число - период времени, за который выпало указанное количество осадков.
R24 - Количество осадков - Количество выпавших осадков за 24 часа, мм.
S - Снежный покров - Высота снежного покрова, см. При наведении курсора мыши на число - состояние снежного покрова и степень покрытия местности в баллах.